User: anonymous   Login
Location: *
(33.8649°S, 62.1526°E)
Time: 15:10:41
(UTC+00:00)
Language:

MOS 1 - Orbit

View from above orbital plane
View from above orbital plane
View from above satellite
View from above satellite

Ground track
Ground track

The orbit data is extracted from the following two-line orbital elements,

1 17527U 87018A   21104.55910323 -.00000225  00000-0 -11684-3 0  9996
2 17527  99.1136 154.0775 0009481  45.4372  82.3415 14.02585890745123
Epoch (UTC): 14 April 2021 13:25:06
Eccentricity: 0.0009481
inclination: 99.1136°
perigee height: 878 km
apogee height: 892 km
right ascension of ascending node: 154.0775°
argument of perigee: 45.4372°
revolutions per day: 14.02585890
mean anomaly at epoch: 82.3415°
orbit number at epoch: 74512

The dashed part of the orbit path shows where the satellite is in the earth's shadow,  

DLR